When you browse on this site, cookies collect data to enhance your experience and personalize the content and advertising you see.
Visit our Privacy Policy to learn more. By continuing to use the site, you agree to this use of cookies and data.
EN

Hourly Weather Alho

Today, 11 August, Tuesday

Time Temperature Precipitation Wind Pressure Humidity
00:00 +12°C° 0 mm 4 mps 760 mmHg 83%
01:00 +12°C° 0 mm 4 mps 760 mmHg 84%
02:00 +12°C° 0 mm 4 mps 760 mmHg 85%
03:00 +11°C° 0 mm 4 mps 760 mmHg 84%
04:00 +11°C° 0 mm 4 mps 760 mmHg 84%
05:00 +11°C° 0 mm 4 mps 760 mmHg 84%
06:00 +12°C° 0 mm 5 mps 760 mmHg 76%
07:00 +13°C° 0 mm 5 mps 760 mmHg 69%
08:00 +14°C° 0 mm 6 mps 761 mmHg 62%
09:00 +15°C° 0 mm 6 mps 761 mmHg 60%
10:00 +15°C° 0 mm 6 mps 761 mmHg 57%
11:00 +16°C° 0 mm 5 mps 761 mmHg 55%
12:00 +16°C° 0 mm 5 mps 761 mmHg 54%
13:00 +16°C° 0 mm 5 mps 761 mmHg 53%
14:00 +17°C° 0 mm 5 mps 761 mmHg 52%
15:00 +16°C° 0 mm 5 mps 761 mmHg 53%
16:00 +17°C° 0 mm 4 mps 761 mmHg 53%
17:00 +17°C° 0 mm 4 mps 761 mmHg 54%
18:00 +16°C° 0 mm 3 mps 761 mmHg 59%
19:00 +14°C° 0 mm 3 mps 761 mmHg 63%
20:00 +14°C° 0 mm 2 mps 762 mmHg 68%
21:00 +14°C° 0 mm 2 mps 762 mmHg 71%
22:00 +13°C° 0 mm 2 mps 762 mmHg 74%
23:00 +13°C° 0 mm 2 mps 762 mmHg 77%

Tomorrow, 12 August, Wednesday

Time Temperature Precipitation Wind Pressure Humidity
00:00 +12°C° 0 mm 2 mps 762 mmHg 80%
01:00 +10°C° 0 mm 2 mps 762 mmHg 84%
02:00 +10°C° 0 mm 2 mps 762 mmHg 88%
03:00 +9°C° 0 mm 2 mps 762 mmHg 89%
04:00 +9°C° 0 mm 2 mps 762 mmHg 90%
05:00 +9°C° 0 mm 2 mps 762 mmHg 91%
06:00 +12°C° 0 mm 2 mps 762 mmHg 82%
07:00 +13°C° 0 mm 2 mps 762 mmHg 73%
08:00 +15°C° 0 mm 2 mps 762 mmHg 64%
09:00 +16°C° 0 mm 2 mps 762 mmHg 60%
10:00 +16°C° 0 mm 2 mps 762 mmHg 56%
11:00 +17°C° 0 mm 2 mps 762 mmHg 52%
12:00 +18°C° 0 mm 1 mps 762 mmHg 52%
13:00 +18°C° 0 mm 1 mps 761 mmHg 52%
14:00 +18°C° 0 mm 1 mps 761 mmHg 52%
15:00 +18°C° 0 mm 1 mps 761 mmHg 53%
16:00 +18°C° 0 mm 1 mps 761 mmHg 54%
17:00 +18°C° 0 mm 1 mps 761 mmHg 55%
18:00 +15°C° 0 mm 1 mps 760 mmHg 61%
19:00 +13°C° 0 mm 0 mps 760 mmHg 67%
20:00 +12°C° 0 mm 0 mps 760 mmHg 73%
21:00 +11°C° 0 mm 0 mps 760 mmHg 74%
22:00 +11°C° 0 mm 1 mps 760 mmHg 76%
23:00 +11°C° 0 mm 1 mps 760 mmHg 77%

Day after tomorrow, 13 August, Thursday

Time Temperature Precipitation Wind Pressure Humidity
00:00 +10°C° 0 mm 1 mps 760 mmHg 77%
01:00 +9°C° 0 mm 0 mps 760 mmHg 78%
02:00 +8°C° 0 mm 0 mps 760 mmHg 78%
03:00 +9°C° 0 mm 0 mps 760 mmHg 76%
04:00 +10°C° 0 mm 1 mps 760 mmHg 74%
05:00 +11°C° 0 mm 1 mps 759 mmHg 72%
06:00 +12°C° 0 mm 1 mps 759 mmHg 68%
07:00 +13°C° 0 mm 0 mps 759 mmHg 64%
08:00 +14°C° 0 mm 0 mps 759 mmHg 60%
09:00 +16°C° 0 mm 0 mps 759 mmHg 56%
10:00 +17°C° 0 mm 0 mps 759 mmHg 52%
11:00 +19°C° 0 mm 0 mps 759 mmHg 48%
12:00 +19°C° 0 mm 0 mps 759 mmHg 47%
13:00 +22°C° 0 mm 1 mps 759 mmHg 45%
14:00 +23°C° 0 mm 1 mps 758 mmHg 43%
15:00 +22°C° 0 mm 1 mps 758 mmHg 45%
16:00 +22°C° 0 mm 1 mps 758 mmHg 46%
17:00 +21°C° 0 mm 1 mps 758 mmHg 47%
18:00 +19°C° 0 mm 1 mps 758 mmHg 56%
19:00 +16°C° 0 mm 1 mps 758 mmHg 65%
20:00 +14°C° 0 mm 1 mps 757 mmHg 73%
21:00 +14°C° 0 mm 1 mps 757 mmHg 76%
22:00 +13°C° 0 mm 1 mps 757 mmHg 79%
23:00 +12°C° 0 mm 2 mps 757 mmHg 82%

14 August, Friday

Time Temperature Precipitation Wind Pressure Humidity
00:00 +12°C° 0 mm 2 mps 757 mmHg 83%
01:00 +12°C° 0 mm 2 mps 757 mmHg 83%
02:00 +10°C° 0 mm 2 mps 757 mmHg 84%
03:00 +10°C° 0 mm 2 mps 757 mmHg 84%
04:00 +10°C° 0 mm 2 mps 757 mmHg 84%
05:00 +10°C° 0 mm 2 mps 757 mmHg 83%
06:00 +13°C° 0 mm 2 mps 756 mmHg 79%
07:00 +15°C° 0 mm 2 mps 756 mmHg 75%
08:00 +17°C° 0 mm 2 mps 756 mmHg 70%
09:00 +18°C° 0 mm 3 mps 756 mmHg 65%
10:00 +19°C° 0 mm 3 mps 756 mmHg 60%
11:00 +21°C° 0 mm 3 mps 756 mmHg 54%
12:00 +21°C° 0.1 mm 3 mps 755 mmHg 59%
13:00 +20°C° 0.1 mm 3 mps 755 mmHg 64%
14:00 +20°C° 0.1 mm 3 mps 755 mmHg 69%
15:00 +19°C° 0.3 mm 3 mps 754 mmHg 75%
16:00 +19°C° 0.3 mm 3 mps 754 mmHg 82%
17:00 +18°C° 0.3 mm 2 mps 754 mmHg 88%
18:00 +17°C° 0.3 mm 2 mps 754 mmHg 90%
19:00 +17°C° 0.3 mm 2 mps 753 mmHg 92%
20:00 +16°C° 0.3 mm 3 mps 753 mmHg 94%
21:00 +16°C° 0.1 mm 2 mps 753 mmHg 95%
22:00 +15°C° 0.1 mm 2 mps 753 mmHg 96%
23:00 +15°C° 0.1 mm 2 mps 753 mmHg 97%

15 August, Saturday

Time Temperature Precipitation Wind Pressure Humidity
00:00 +15°C° 0.4 mm 2 mps 753 mmHg 97%
01:00 +15°C° 0.4 mm 2 mps 753 mmHg 97%
02:00 +15°C° 0.4 mm 1 mps 752 mmHg 98%
03:00 +15°C° 0.2 mm 1 mps 753 mmHg 98%
04:00 +15°C° 0.2 mm 1 mps 753 mmHg 98%
05:00 +14°C° 0.2 mm 0 mps 753 mmHg 97%
06:00 +16°C° 0 mm 1 mps 753 mmHg 95%
07:00 +18°C° 0 mm 1 mps 753 mmHg 93%
08:00 +19°C° 0 mm 1 mps 753 mmHg 91%
09:00 +19°C° 0.1 mm 2 mps 753 mmHg 83%
10:00 +20°C° 0.1 mm 2 mps 754 mmHg 76%
11:00 +21°C° 0.1 mm 2 mps 754 mmHg 69%
12:00 +23°C° 0.2 mm 2 mps 755 mmHg 67%
13:00 +23°C° 0.2 mm 2 mps 755 mmHg 66%
14:00 +23°C° 0.2 mm 2 mps 755 mmHg 65%
15:00 +23°C° 0.1 mm 2 mps 755 mmHg 67%
16:00 +21°C° 0.1 mm 2 mps 756 mmHg 69%
17:00 +21°C° 0.1 mm 2 mps 756 mmHg 71%
18:00 +19°C° 0 mm 2 mps 756 mmHg 79%
19:00 +18°C° 0 mm 2 mps 756 mmHg 87%
20:00 +16°C° 0 mm 2 mps 757 mmHg 94%
21:00 +15°C° 0 mm 2 mps 757 mmHg 95%
22:00 +15°C° 0 mm 2 mps 757 mmHg 96%
23:00 +14°C° 0 mm 1 mps 758 mmHg 96%

16 August, Sunday

Time Temperature Precipitation Wind Pressure Humidity
00:00 +14°C° 0 mm 1 mps 758 mmHg 96%
01:00 +14°C° 0 mm 1 mps 759 mmHg 96%
02:00 +14°C° 0 mm 1 mps 759 mmHg 96%
03:00 +14°C° 0 mm 1 mps 759 mmHg 96%
04:00 +14°C° 0 mm 1 mps 759 mmHg 95%
05:00 +14°C° 0 mm 1 mps 760 mmHg 95%
06:00 +16°C° 0 mm 1 mps 760 mmHg 87%
07:00 +17°C° 0 mm 2 mps 760 mmHg 79%
08:00 +19°C° 0 mm 2 mps 760 mmHg 71%
09:00 +20°C° 0 mm 2 mps 761 mmHg 65%
10:00 +21°C° 0 mm 2 mps 761 mmHg 59%
11:00 +23°C° 0 mm 2 mps 761 mmHg 53%
12:00 +24°C° 0 mm 2 mps 761 mmHg 53%
13:00 +24°C° 0 mm 3 mps 761 mmHg 52%
14:00 +24°C° 0 mm 3 mps 761 mmHg 52%
15:00 +24°C° 0 mm 2 mps 761 mmHg 53%
16:00 +23°C° 0 mm 2 mps 761 mmHg 55%
17:00 +21°C° 0 mm 2 mps 761 mmHg 56%
18:00 +20°C° 0 mm 2 mps 761 mmHg 60%
19:00 +18°C° 0 mm 2 mps 761 mmHg 65%
20:00 +16°C° 0 mm 1 mps 761 mmHg 69%
21:00 +15°C° 0 mm 1 mps 761 mmHg 68%
22:00 +15°C° 0 mm 1 mps 762 mmHg 66%
23:00 +14°C° 0 mm 1 mps 762 mmHg 65%
Show more